QPF
0.00 0.00 0.00 0.00 0.00 0.00 0.00 0.00 0.00 0.00 0.00 0.00 0.00 0.00 0.00 0.00 0.00 0.00 0.00 0.00 0.00 0.00 0.01 0.01 0.00 0.00 0.00 0.00 0.00 0.00 0.00 0.00 0.00 0.00 0.00 0.00 0.00 0.00 0.00 0.00 0.00 0.00 0.00 0.00 0.00
0.00 0.00 0.00 0.00 0.00 0.00 0.00 0.00 0.00 0.00 0.00 0.00 0.00 0.00 0.00 0.00 0.00 0.00 0.00 0.00 0.00 0.00 0.00 0.02 0.00 0.00 0.00 0.00 0.00 0.00 0.00 0.00 0.00 0.00 0.00 0.00 0.00 0.00 0.00 0.00 0.00 0.00 0.00 0.00 0.00
0.00 0.00 0.00 0.00 0.00 0.00 0.00 0.00 0.00 0.00 0.00 0.00 0.00 0.00 0.00 0.00 0.00 0.00 0.00 0.00 0.00 0.00 0.01 0.01 0.00 0.00 0.00 0.00 0.00 0.00 0.00 0.00 0.00 0.00 0.00 0.00 0.00 0.00 0.00 0.00 0.00 0.00 0.00 0.00 0.00
0.00 0.00 0.00 0.00 0.00 0.00 0.00 0.00 0.00 0.00 0.00 0.00 0.00 0.00 0.00 0.00 0.00 0.00 0.00 0.00 0.00 0.00 0.03 0.01 0.00 0.00 0.00 0.00 0.00 0.00 0.01 0.01 0.00 0.00 0.00 0.00 0.00 0.00 0.00 0.00 0.00 0.00 0.00 0.00 0.00
0.00 0.00 0.00 0.00 0.00 0.00 0.00 0.00 0.00 0.00 0.00 0.00 0.00 0.00 0.00 0.00 0.00 0.00 0.00 0.00 0.00 0.00 0.00 0.00 0.00 0.00 0.00 0.00 0.00 0.00 0.00 0.00 0.00 0.00 0.00 0.00 0.00 0.00 0.00 0.00 0.00 0.00 0.00 0.00 0.00
0.00 0.00 0.00 0.00 0.00 0.00 0.00 0.00 0.00 0.00 0.00 0.00 0.00 0.00 0.00 0.00 0.00 0.00 0.00 0.00 0.00 0.02 0.01 0.00 0.01 0.03 0.05 0.01 0.00 0.08 0.00 0.00 0.00 0.00 0.00 0.00 0.00 0.00 0.00 0.00 0.00 0.00 0.00 0.00 0.00
0.00 0.00 0.00 0.00 0.00 0.00 0.00 0.00 0.00 0.00 0.00 0.00 0.00 0.00 0.00 0.00 0.00 0.00 0.00 0.00 0.01 0.04 0.03 0.03 0.01 0.01 0.02 0.01 0.01 0.03 0.01 0.00 0.01 0.01 0.02 0.02 0.00 0.00 0.00 0.00 0.00 0.00 0.00 0.00 0.00
0.00 0.00 0.00 0.00 0.00 0.00 0.00 0.00 0.00 0.00 0.00 0.00 0.00 0.00 0.00 0.00 0.00 0.00 0.00 0.01 0.01 0.02 0.04 0.05 0.04 0.02 0.04 0.01 0.01 0.02 0.01 0.00 0.01 0.00 0.00 0.00 0.00 0.00 0.00 0.00 0.00 0.00 0.00 0.00 0.00
0.00 0.00 0.00 0.00 0.00 0.00 0.00 0.00 0.00 0.00 0.00 0.00 0.00 0.00 0.00 0.00 0.00 0.00 0.00 0.02 0.02 0.02 0.02 0.07 0.07 0.04 0.04 0.00 0.00 0.01 0.00 0.00 0.00 0.00 0.00 0.00 0.00 0.00 0.00 0.00 0.00 0.00 0.00 0.00 0.00
0.00 0.00 0.00 0.00 0.00 0.00 0.00 0.00 0.00 0.00 0.00 0.00 0.00 0.00 0.00 0.00 0.00 0.00 0.00 0.01 0.00 0.00 0.00 0.03 0.09 0.05 0.06 0.00 0.00 0.00 0.00 0.00 0.00 0.00 0.00 0.00 0.00 0.00 0.00 0.00 0.00 0.00 0.00 0.00 0.00
0.00 0.00 0.00 0.00 0.00 0.00 0.00 0.00 0.00 0.00 0.00 0.00 0.00 0.00 0.00 0.00 0.00 0.00 0.00 0.00 0.00 0.00 0.00 0.01 0.02 0.02 0.06 0.00 0.00 0.00 0.00 0.00 0.00 0.00 0.00 0.00 0.00 0.00 0.00 0.00 0.00 0.00 0.00 0.00 0.00
0.00 0.00 0.00 0.00 0.00 0.00 0.00 0.00 0.00 0.00 0.00 0.00 0.00 0.00 0.00 0.00 0.00 0.00 0.00 0.00 0.00 0.00 0.04 0.02 0.03 0.02 0.01 0.00 0.00 0.00 0.00 0.00 0.00 0.00 0.00 0.00 0.00 0.00 0.00 0.00 0.00 0.00 0.00 0.00 0.00
0.00 0.00 0.00 0.00 0.00 0.00 0.00 0.00 0.00 0.00 0.00 0.00 0.00 0.00 0.00 0.00 0.00 0.00 0.00 0.00 0.00 0.00 0.01 0.01 0.01 0.01 0.00 0.00 0.00 0.00 0.00 0.00 0.00 0.00 0.00 0.00 0.00 0.00 0.00 0.00 0.00 0.00 0.00 0.00 0.00
0.00 0.00 0.00 0.00 0.00 0.00 0.00 0.00 0.00 0.00 0.00 0.00 0.00 0.00 0.00 0.01 0.01 0.00 0.00 0.00 0.00 0.00 0.00 0.01 0.01 0.00 0.00 0.00 0.00 0.00 0.00 0.00 0.00 0.00 0.00 0.00 0.00 0.00 0.00 0.00 0.00 0.00 0.00 0.00 0.00
0.00 0.00 0.00 0.00 0.00 0.00 0.00 0.00 0.00 0.00 0.00 0.00 0.00 0.00 0.00 0.00 0.01 0.00 0.00 0.00 0.00 0.00 0.00 0.00 0.00 0.00 0.00 0.00 0.00 0.00 0.00 0.00 0.00 0.00 0.00 0.00 0.00 0.00 0.00 0.00 0.00 0.00 0.00 0.00 0.00
0.00 0.00 0.00 0.00 0.00 0.00 0.00 0.00 0.00 0.00 0.00 0.00 0.00 0.00 0.00 0.00 0.00 0.00 0.00 0.00 0.00 0.00 0.00 0.00 0.00 0.00 0.00 0.00 0.00 0.00 0.00 0.00 0.00 0.00 0.00 0.00 0.00 0.00 0.00 0.00 0.00 0.00 0.00 0.00 0.00
0.00 0.00 0.00 0.00 0.00 0.00 0.00 0.00 0.00 0.01 0.00 0.00 0.00 0.01 0.02 0.01 0.00 0.00 0.00 0.00 0.00 0.00 0.00 0.00 0.00 0.00 0.00 0.00 0.00 0.00 0.00 0.00 0.00 0.00 0.00 0.00 0.00 0.00 0.00 0.00 0.00 0.00 0.00 0.00 0.00
0.00 0.00 0.00 0.00 0.00 0.00 0.00 0.00 0.00 0.01 0.03 0.00 0.00 0.00 0.02 0.03 0.01 0.02 0.01 0.00 0.00 0.00 0.00 0.00 0.00 0.00 0.00 0.00 0.00 0.00 0.00 0.00 0.00 0.00 0.00 0.00 0.00 0.00 0.00 0.00 0.00 0.00 0.00 0.00 0.00
0.00 0.00 0.00 0.00 0.00 0.00 0.00 0.00 0.00 0.01 0.04 0.02 0.01 0.00 0.00 0.01 0.02 0.00 0.01 0.01 0.01 0.00 0.00 0.00 0.00 0.00 0.00 0.00 0.00 0.00 0.00 0.00 0.00 0.00 0.00 0.00 0.00 0.00 0.00 0.00 0.00 0.00 0.00 0.00 0.00
0.00 0.00 0.00 0.00 0.00 0.00 0.00 0.00 0.00 0.01 0.05 0.04 0.01 0.00 0.00 0.00 0.00 0.00 0.00 0.00 0.02 0.01 0.01 0.00 0.00 0.00 0.00 0.00 0.00 0.00 0.00 0.00 0.00 0.00 0.00 0.00 0.00 0.00 0.00 0.00 0.00 0.00 0.00 0.00 0.00
0.00 0.00 0.00 0.00 0.00 0.00 0.01 0.00 0.00 0.00 0.01 0.02 0.00 0.00 0.00 0.00 0.00 0.00 0.00 0.01 0.05 0.02 0.00 0.00 0.00 0.00 0.00 0.00 0.00 0.00 0.00 0.00 0.00 0.00 0.00 0.00 0.00 0.00 0.00 0.00 0.00 0.00 0.00 0.00 0.00
0.00 0.00 0.00 0.00 0.00 0.00 0.00 0.00 0.00 0.00 0.01 0.00 0.00 0.00 0.00 0.00 0.00 0.00 0.00 0.01 0.01 0.00 0.00 0.00 0.00 0.00 0.00 0.00 0.00 0.00 0.00 0.00 0.00 0.00 0.00 0.00 0.00 0.00 0.00 0.00 0.00 0.00 0.00 0.00 0.00
0.00 0.00 0.00 0.00 0.00 0.00 0.00 0.00 0.00 0.00 0.01 0.01 0.00 0.00 0.00 0.00 0.00 0.00 0.00 0.01 0.00 0.00 0.01 0.00 0.00 0.00 0.00 0.00 0.00 0.00 0.00 0.00 0.00 0.00 0.00 0.00 0.00 0.00 0.00 0.00 0.00 0.00 0.00 0.00 0.00
0.00 0.00 0.00 0.00 0.00 0.00 0.00 0.00 0.00 0.00 0.00 0.00 0.00 0.00 0.00 0.00 0.00 0.00 0.00 0.00 0.00 0.00 0.01 0.00 0.00 0.00 0.00 0.00 0.00 0.00 0.00 0.00 0.00 0.00 0.00 0.00 0.00 0.00 0.00 0.00 0.00 0.00 0.00 0.00 0.00
0.00 0.00 0.00 0.00 0.00 0.00 0.00 0.00 0.00 0.00 0.00 0.00 0.00 0.00 0.00 0.00 0.00 0.00 0.00 0.00 0.00 0.00 0.00 0.00 0.00 0.00 0.00 0.00 0.00 0.00 0.00 0.00 0.00 0.00 0.00 0.00 0.00 0.00 0.00 0.00 0.00 0.00 0.00 0.00 0.00
0.00 0.00 0.00 0.00 0.00 0.00 0.00 0.00 0.00 0.00 0.00 0.00 0.00 0.00 0.00 0.00 0.00 0.00 0.00 0.00 0.00 0.00 0.00 0.00 0.00 0.00 0.00 0.00 0.00 0.00 0.00 0.00 0.00 0.00 0.00 0.00 0.00 0.00 0.00 0.00 0.00 0.00 0.00 0.00 0.00
0.00 0.00 0.00 0.00 0.00 0.00 0.00 0.00 0.00 0.00 0.00 0.00 0.00 0.00 0.00 0.00 0.00 0.00 0.00 0.00 0.00 0.00 0.00 0.00 0.00 0.00 0.00 0.00 0.00 0.00 0.00 0.00 0.00 0.00 0.00 0.00 0.00 0.00 0.00 0.00 0.00 0.00 0.00 0.00 0.00
MSLP
1016.11 1015.98 1015.60 1015.39 1015.03 1014.69 1014.39 1014.08 1013.78 1013.43 1012.93 1012.53 1012.01 1011.50 1011.05 1010.57 1009.43 1008.83 1007.82 1005.70 1005.45 1005.44 1005.65 1005.42 1005.30 1005.48 1006.18 1006.86 1007.06 1007.29 1007.79 1007.01 1005.92 1005.27 1004.46 1004.48 1004.79 1005.56 1005.66 1006.33 1006.88 1007.32 1007.82 1008.55 1009.96
1015.94 1015.82 1015.54 1015.32 1014.94 1014.60 1014.32 1014.03 1013.68 1013.30 1012.83 1012.40 1011.84 1011.34 1010.96 1010.60 1009.73 1007.92 1005.20 1004.93 1005.22 1005.58 1005.43 1005.40 1005.50 1005.74 1006.54 1007.02 1007.28 1007.51 1007.77 1006.74 1005.42 1004.69 1004.15 1004.20 1004.43 1005.24 1006.07 1006.68 1007.21 1007.73 1008.20 1009.15 1010.30
1015.95 1015.67 1015.40 1015.20 1014.85 1014.52 1014.24 1013.96 1013.60 1013.16 1012.67 1012.18 1011.67 1011.21 1010.83 1010.65 1009.43 1005.92 1004.42 1004.87 1005.30 1005.37 1005.51 1005.68 1005.88 1006.24 1007.09 1007.62 1008.02 1007.98 1007.72 1006.81 1005.01 1004.53 1003.83 1004.03 1004.59 1005.11 1006.04 1006.85 1006.98 1007.44 1008.56 1009.48 1010.44
1015.94 1015.60 1015.28 1015.02 1014.73 1014.36 1014.09 1013.83 1013.49 1013.08 1012.56 1012.07 1011.60 1011.14 1010.64 1010.38 1008.20 1005.05 1004.73 1005.20 1005.14 1005.14 1005.38 1005.69 1006.28 1007.04 1007.70 1008.12 1008.11 1007.94 1007.26 1007.14 1005.98 1004.36 1003.56 1003.71 1004.34 1005.32 1005.83 1006.07 1006.63 1007.30 1008.34 1009.50 1010.42
1015.88 1015.57 1015.23 1014.82 1014.53 1014.18 1013.89 1013.62 1013.38 1012.96 1012.47 1011.99 1011.56 1011.11 1010.40 1009.53 1006.75 1004.83 1005.10 1005.12 1005.28 1005.28 1005.41 1005.78 1006.37 1007.02 1007.57 1008.36 1008.48 1008.33 1007.65 1007.52 1006.18 1004.75 1003.76 1003.65 1004.42 1005.21 1006.10 1006.35 1007.20 1007.85 1008.72 1009.68 1010.38
1015.78 1015.48 1015.14 1014.68 1014.31 1013.86 1013.62 1013.31 1013.05 1012.72 1012.32 1011.93 1011.50 1011.16 1010.53 1008.41 1004.90 1004.70 1005.09 1005.29 1005.23 1005.55 1005.74 1005.89 1006.27 1006.40 1007.28 1008.10 1008.34 1008.30 1007.88 1007.14 1006.20 1005.18 1004.42 1004.43 1005.12 1005.25 1006.78 1006.78 1007.63 1008.21 1008.84 1009.34 1009.97
1015.63 1015.39 1015.06 1014.57 1014.09 1013.60 1013.28 1012.90 1012.56 1012.31 1012.00 1011.76 1011.40 1011.07 1010.06 1006.90 1004.96 1004.81 1005.06 1005.14 1005.02 1005.32 1005.75 1005.77 1005.96 1006.08 1007.01 1007.78 1008.00 1007.77 1007.74 1006.82 1005.94 1005.23 1005.26 1004.82 1005.85 1006.30 1006.70 1007.24 1007.80 1008.40 1008.76 1009.11 1009.20
1015.46 1015.19 1014.84 1014.44 1013.89 1013.29 1012.84 1012.44 1012.03 1011.78 1011.59 1011.49 1011.26 1010.85 1008.71 1005.45 1005.10 1005.01 1005.06 1005.12 1004.70 1005.12 1005.86 1006.09 1006.28 1007.22 1007.56 1008.34 1008.71 1008.75 1008.88 1008.21 1005.96 1005.39 1005.38 1005.26 1006.42 1006.91 1007.25 1007.47 1007.96 1008.42 1008.68 1008.78 1008.92
1015.30 1014.99 1014.58 1014.24 1013.73 1013.08 1012.37 1011.80 1011.29 1011.16 1011.19 1011.21 1011.10 1010.29 1007.41 1005.10 1005.15 1004.24 1004.61 1005.04 1004.76 1005.42 1006.38 1006.47 1006.69 1007.70 1008.04 1008.89 1009.34 1009.49 1009.18 1008.17 1006.46 1005.30 1005.26 1005.51 1006.63 1006.95 1007.34 1007.66 1007.99 1008.18 1008.34 1008.35 1008.44
1015.11 1014.80 1014.35 1014.04 1013.55 1012.87 1011.97 1011.04 1010.70 1010.89 1011.05 1010.86 1010.30 1009.85 1006.56 1004.55 1003.85 1003.86 1004.29 1005.31 1005.51 1005.74 1006.54 1007.20 1008.10 1008.26 1008.51 1008.84 1008.85 1008.76 1008.70 1007.68 1006.58 1005.46 1005.29 1005.78 1006.39 1006.75 1007.20 1007.51 1007.66 1007.87 1007.98 1008.03 1008.00
1014.92 1014.57 1014.15 1013.88 1013.46 1012.97 1011.99 1010.89 1010.98 1010.69 1010.10 1008.76 1008.09 1007.29 1005.46 1003.94 1003.22 1003.66 1004.09 1005.04 1005.90 1006.77 1007.51 1008.11 1008.56 1008.02 1006.56 1007.50 1007.72 1007.90 1007.74 1007.19 1006.20 1005.55 1005.60 1005.72 1006.21 1006.66 1006.90 1007.27 1007.52 1007.54 1007.48 1007.46 1007.48
1014.73 1014.33 1013.94 1013.70 1013.36 1013.03 1013.14 1011.51 1009.92 1009.76 1008.96 1007.20 1006.68 1006.15 1004.94 1004.72 1004.38 1003.56 1003.80 1005.06 1006.20 1007.43 1008.11 1008.40 1007.99 1007.46 1006.51 1006.86 1007.21 1007.06 1006.93 1006.34 1005.46 1004.79 1005.59 1005.98 1006.21 1006.46 1006.74 1006.45 1006.52 1006.60 1006.98 1006.95 1007.15
1014.52 1014.12 1013.77 1013.48 1013.10 1012.93 1012.42 1010.56 1009.17 1009.30 1008.98 1006.36 1005.53 1004.90 1004.29 1004.65 1004.20 1003.54 1004.02 1004.93 1006.22 1007.36 1007.56 1007.40 1006.58 1006.39 1006.69 1006.47 1006.36 1006.05 1006.15 1005.36 1005.84 1005.35 1005.69 1006.12 1006.54 1006.22 1006.21 1006.17 1006.05 1006.01 1006.14 1006.26 1006.42
1014.26 1013.91 1013.61 1013.20 1013.28 1012.61 1011.25 1009.49 1009.13 1009.24 1008.83 1005.98 1004.63 1003.09 1003.24 1003.73 1003.78 1002.80 1003.72 1004.66 1005.88 1006.48 1007.16 1006.87 1006.24 1005.98 1005.87 1005.47 1005.15 1005.42 1004.22 1004.76 1005.42 1005.81 1006.39 1006.46 1007.12 1006.26 1005.74 1005.86 1005.62 1005.39 1005.54 1005.49 1005.56
1014.01 1013.73 1013.52 1013.41 1013.44 1012.10 1010.18 1009.48 1008.95 1008.92 1007.88 1004.60 1003.24 1001.74 1002.12 1003.28 1002.80 1003.04 1003.30 1004.00 1005.06 1005.55 1006.08 1005.29 1005.06 1004.83 1004.52 1003.72 1003.83 1003.72 1003.64 1004.44 1005.25 1006.33 1007.02 1007.28 1007.42 1005.94 1005.69 1005.54 1005.02 1004.62 1004.38 1004.53 1004.64
1013.72 1013.49 1013.36 1013.20 1013.35 1010.38 1009.72 1009.12 1008.85 1008.93 1006.67 1003.81 1002.40 1002.30 1002.72 1002.75 1002.57 1002.94 1003.28 1003.47 1003.96 1004.85 1005.01 1004.59 1003.57 1003.42 1002.80 1002.25 1002.42 1002.47 1003.67 1005.39 1006.18 1007.16 1008.23 1007.42 1007.41 1006.05 1005.34 1004.39 1004.04 1003.83 1003.70 1003.63 1003.92
1013.42 1013.20 1013.36 1012.86 1011.28 1009.88 1009.50 1009.25 1009.45 1008.91 1005.97 1004.37 1003.20 1003.14 1003.09 1003.33 1003.02 1003.12 1003.54 1003.70 1004.28 1004.93 1005.21 1004.34 1003.30 1002.45 1001.96 1001.84 1001.68 1002.50 1004.26 1005.85 1007.38 1008.28 1008.32 1007.70 1007.51 1005.32 1004.04 1003.39 1002.90 1003.00 1003.15 1003.12 1003.28
1013.07 1012.96 1012.52 1011.56 1010.52 1010.31 1009.48 1009.38 1009.26 1007.65 1006.52 1004.63 1003.61 1003.47 1003.87 1004.14 1003.78 1003.43 1003.99 1004.38 1004.49 1005.03 1005.76 1005.22 1003.66 1002.29 1001.60 1001.54 1001.88 1002.66 1003.73 1005.49 1007.31 1008.74 1008.34 1007.67 1006.61 1004.46 1003.29 1002.68 1002.85 1002.68 1002.74 1002.84 1003.29
1012.78 1012.75 1012.29 1009.49 1009.97 1010.95 1010.19 1009.83 1008.32 1007.32 1006.46 1005.63 1004.29 1004.07 1004.22 1004.16 1003.98 1003.62 1004.13 1004.43 1004.63 1004.91 1005.32 1005.22 1003.92 1002.18 1001.46 1001.00 1001.17 1002.28 1003.51 1004.55 1006.79 1008.56 1008.62 1007.84 1006.28 1004.30 1003.62 1003.31 1003.38 1003.43 1003.05 1003.18 1003.14
1012.72 1012.21 1010.51 1008.43 1009.07 1009.70 1009.82 1009.59 1007.80 1006.58 1006.00 1005.66 1004.90 1004.16 1003.99 1003.73 1003.92 1004.18 1004.32 1004.54 1004.62 1004.77 1005.17 1005.28 1004.69 1002.65 1001.51 1000.81 1000.71 1001.16 1002.58 1004.51 1006.40 1008.45 1009.04 1008.39 1007.29 1006.23 1005.54 1005.19 1004.51 1004.36 1004.17 1004.15 1003.99
1012.56 1011.62 1008.82 1008.25 1008.61 1009.40 1009.95 1009.07 1007.28 1005.89 1005.06 1005.08 1004.67 1004.25 1004.01 1003.97 1003.72 1004.35 1004.41 1004.30 1004.26 1004.62 1004.85 1005.17 1005.31 1003.39 1002.26 1001.45 1001.42 1001.57 1002.56 1004.56 1006.41 1007.85 1008.70 1009.00 1008.13 1006.68 1006.18 1005.97 1005.52 1005.58 1005.22 1005.30 1005.21
1012.09 1010.91 1008.71 1008.68 1009.11 1009.57 1009.36 1008.18 1007.04 1005.98 1005.05 1004.78 1004.13 1003.66 1003.61 1004.08 1004.53 1004.44 1004.31 1003.67 1003.39 1003.87 1005.02 1004.90 1005.01 1004.32 1002.77 1001.18 1001.37 1001.97 1002.57 1004.05 1006.18 1008.08 1008.74 1008.60 1008.19 1007.01 1007.02 1006.74 1005.96 1006.14 1006.32 1006.29 1006.05
1011.88 1010.70 1008.93 1008.81 1009.06 1009.16 1008.42 1007.73 1006.63 1005.68 1005.29 1004.52 1003.86 1003.25 1003.68 1004.60 1005.33 1004.05 1003.78 1002.89 1003.06 1003.11 1004.06 1004.22 1004.75 1004.64 1003.00 1002.06 1001.41 1001.92 1002.40 1003.74 1005.27 1006.86 1008.33 1008.64 1008.35 1007.54 1007.61 1007.61 1007.14 1007.12 1007.38 1007.43 1007.45
1011.82 1011.00 1010.02 1009.25 1008.92 1008.44 1008.02 1007.02 1006.48 1005.20 1004.92 1005.22 1003.38 1003.66 1003.84 1004.25 1004.48 1004.18 1003.78 1002.70 1002.17 1002.69 1003.39 1004.46 1004.79 1004.58 1004.14 1003.27 1002.64 1002.47 1002.72 1003.43 1004.70 1006.70 1008.09 1008.16 1008.03 1007.88 1008.03 1008.00 1007.79 1007.96 1008.22 1008.39 1008.18
1011.70 1010.86 1009.59 1009.50 1008.81 1008.60 1008.11 1007.54 1006.51 1006.06 1004.56 1003.74 1003.44 1003.28 1003.12 1004.03 1004.64 1004.26 1003.76 1002.84 1002.78 1003.08 1004.28 1004.66 1004.86 1004.67 1003.94 1003.44 1002.88 1003.22 1003.34 1003.68 1004.58 1005.59 1006.54 1007.20 1007.72 1007.75 1008.03 1008.00 1008.09 1008.49 1008.52 1008.66 1008.88
1011.53 1010.63 1009.54 1009.05 1008.39 1008.00 1007.80 1007.74 1006.44 1005.39 1004.40 1003.27 1002.94 1002.12 1002.07 1002.88 1002.77 1002.72 1003.34 1003.22 1002.63 1003.18 1004.14 1004.50 1004.74 1004.70 1004.39 1003.64 1003.33 1003.76 1004.04 1004.18 1004.84 1005.79 1006.66 1007.29 1007.81 1007.68 1008.12 1008.38 1008.59 1008.48 1008.44 1008.74 1009.06
1011.22 1010.18 1009.87 1009.00 1008.49 1007.90 1007.23 1006.64 1005.42 1004.96 1003.59 1002.89 1002.56 1002.24 1002.01 1001.19 1001.24 1001.00 1002.41 1002.69 1002.78 1003.18 1004.09 1004.66 1005.08 1005.71 1005.53 1004.80 1004.42 1004.92 1005.39 1005.41 1005.77 1006.20 1006.80 1007.64 1007.68 1008.03 1008.50 1008.23 1008.20 1008.59 1008.73 1009.10 1009.42
Thickness
5756 5758 5761 5763 5767 5771 5775 5779 5783 5788 5794 5800 5806 5813 5818 5822 5833 5837 5833 5858 5865 5866 5865 5865 5863 5859 5852 5836 5839 5837 5797 5797 5811 5811 5824 5845 5834 5843 5849 5833 5836 5837 5830 5829 5823
5756 5758 5760 5763 5767 5771 5775 5779 5783 5788 5795 5801 5807 5814 5819 5823 5829 5835 5867 5871 5870 5870 5864 5855 5847 5851 5836 5832 5832 5818 5796 5809 5833 5837 5833 5843 5842 5837 5830 5828 5826 5827 5833 5829 5820
5754 5757 5760 5763 5767 5771 5775 5778 5784 5789 5796 5802 5809 5815 5820 5823 5827 5847 5875 5873 5873 5873 5867 5863 5857 5846 5826 5830 5824 5819 5802 5824 5838 5845 5854 5844 5839 5845 5827 5816 5827 5824 5825 5824 5817
5753 5756 5760 5763 5766 5771 5775 5778 5784 5790 5797 5803 5809 5815 5821 5824 5806 5862 5873 5871 5875 5874 5867 5857 5848 5828 5819 5816 5828 5812 5829 5828 5836 5848 5851 5848 5850 5835 5835 5834 5841 5838 5834 5825 5816
5752 5755 5759 5763 5767 5771 5775 5779 5784 5790 5797 5803 5809 5815 5822 5817 5831 5870 5869 5873 5873 5870 5859 5850 5840 5831 5821 5820 5827 5816 5825 5826 5838 5846 5856 5861 5845 5838 5832 5842 5841 5837 5830 5822 5817
5750 5754 5758 5762 5766 5772 5776 5781 5785 5791 5798 5803 5809 5814 5817 5806 5871 5873 5871 5869 5871 5863 5856 5856 5843 5844 5828 5824 5821 5826 5827 5830 5836 5843 5853 5843 5840 5843 5834 5843 5836 5831 5824 5824 5821
5749 5752 5757 5761 5766 5772 5778 5784 5788 5794 5800 5804 5809 5814 5812 5826 5871 5874 5872 5868 5873 5867 5854 5863 5858 5848 5842 5827 5835 5834 5818 5831 5837 5843 5838 5849 5825 5824 5840 5840 5832 5827 5827 5826 5825
5748 5752 5756 5760 5766 5773 5780 5786 5792 5798 5802 5806 5809 5813 5812 5863 5869 5870 5872 5866 5875 5871 5862 5865 5864 5841 5834 5834 5823 5815 5808 5789 5832 5843 5841 5841 5801 5827 5836 5834 5826 5826 5826 5829 5830
5747 5751 5756 5760 5766 5774 5783 5790 5797 5802 5805 5807 5809 5812 5815 5867 5856 5875 5874 5857 5866 5864 5856 5861 5855 5832 5830 5810 5796 5797 5782 5792 5817 5848 5841 5837 5810 5831 5836 5832 5825 5828 5830 5833 5833
5746 5750 5755 5759 5765 5774 5785 5795 5800 5802 5806 5810 5815 5805 5838 5846 5868 5872 5876 5862 5850 5850 5840 5834 5822 5814 5812 5801 5778 5789 5789 5805 5809 5840 5843 5830 5822 5831 5835 5833 5830 5832 5833 5832 5836
5744 5750 5755 5758 5764 5771 5783 5793 5793 5795 5806 5813 5820 5824 5843 5868 5881 5867 5874 5857 5846 5831 5808 5819 5806 5793 5825 5825 5827 5818 5812 5811 5827 5845 5837 5831 5830 5829 5837 5834 5832 5832 5835 5837 5840
5743 5749 5754 5758 5763 5768 5771 5787 5799 5805 5793 5826 5831 5835 5853 5859 5841 5862 5875 5842 5831 5804 5808 5808 5801 5822 5842 5836 5826 5823 5818 5819 5837 5854 5841 5830 5830 5838 5835 5842 5846 5845 5841 5844 5843
5741 5747 5753 5757 5763 5768 5774 5791 5811 5812 5789 5819 5834 5837 5846 5851 5839 5849 5860 5843 5826 5811 5807 5808 5826 5841 5832 5830 5825 5827 5821 5831 5821 5845 5846 5834 5822 5833 5844 5849 5853 5853 5853 5853 5848
5739 5746 5752 5757 5762 5767 5782 5804 5810 5812 5770 5804 5826 5845 5855 5850 5835 5870 5864 5845 5826 5818 5814 5816 5837 5834 5831 5829 5837 5809 5852 5849 5840 5823 5800 5835 5785 5823 5840 5840 5851 5856 5853 5854 5855
5736 5743 5749 5753 5754 5772 5794 5804 5813 5807 5743 5824 5833 5875 5864 5839 5851 5852 5867 5848 5819 5822 5827 5828 5836 5836 5833 5846 5852 5837 5865 5851 5843 5819 5815 5818 5796 5819 5840 5837 5847 5856 5864 5866 5867
5734 5741 5747 5752 5755 5785 5796 5805 5806 5759 5745 5814 5838 5836 5835 5845 5852 5855 5852 5862 5855 5834 5838 5842 5868 5859 5855 5870 5870 5877 5853 5831 5822 5808 5782 5810 5804 5812 5826 5845 5854 5864 5869 5872 5872
5731 5740 5744 5751 5772 5787 5796 5797 5755 5733 5802 5807 5818 5824 5826 5827 5836 5841 5833 5829 5819 5811 5813 5836 5849 5868 5875 5861 5873 5860 5827 5783 5788 5780 5778 5806 5800 5823 5857 5862 5869 5868 5870 5875 5878
5731 5739 5748 5760 5775 5782 5792 5774 5741 5775 5778 5817 5823 5819 5807 5813 5822 5833 5820 5814 5831 5824 5802 5801 5806 5858 5876 5865 5853 5847 5835 5791 5774 5764 5784 5814 5798 5828 5865 5874 5878 5878 5877 5876 5874
5731 5738 5746 5774 5778 5775 5776 5745 5758 5775 5793 5796 5809 5806 5806 5816 5823 5829 5820 5818 5828 5832 5810 5798 5811 5864 5872 5880 5873 5850 5830 5842 5793 5789 5782 5792 5817 5854 5863 5861 5862 5860 5869 5871 5874
5729 5740 5756 5781 5782 5779 5761 5747 5772 5794 5798 5794 5788 5806 5795 5812 5813 5814 5815 5828 5826 5836 5832 5823 5801 5852 5867 5881 5883 5869 5863 5823 5801 5777 5778 5781 5799 5802 5821 5835 5849 5851 5855 5860 5868
5729 5742 5770 5779 5782 5766 5743 5751 5780 5802 5811 5794 5791 5798 5804 5805 5817 5810 5808 5828 5833 5831 5836 5829 5812 5831 5854 5852 5849 5851 5844 5820 5807 5791 5768 5760 5779 5825 5820 5831 5835 5840 5847 5850 5854
5731 5735 5767 5773 5750 5747 5745 5765 5786 5796 5803 5803 5811 5814 5812 5815 5802 5811 5810 5827 5847 5842 5818 5831 5816 5811 5832 5868 5873 5862 5852 5829 5797 5798 5771 5771 5779 5832 5823 5831 5840 5838 5841 5843 5848
5729 5735 5762 5766 5737 5750 5764 5774 5786 5794 5792 5802 5808 5826 5818 5806 5791 5811 5819 5849 5848 5843 5825 5835 5813 5792 5824 5844 5862 5851 5854 5829 5812 5799 5785 5773 5779 5833 5822 5822 5829 5829 5830 5831 5833
5728 5725 5740 5750 5752 5759 5765 5770 5773 5804 5798 5795 5807 5813 5808 5803 5808 5809 5811 5837 5853 5844 5841 5834 5812 5813 5795 5820 5836 5838 5845 5844 5827 5794 5784 5784 5797 5817 5817 5816 5821 5821 5822 5819 5820
5726 5733 5745 5733 5751 5758 5766 5767 5763 5771 5803 5810 5801 5805 5811 5796 5797 5800 5819 5832 5844 5842 5835 5830 5809 5816 5825 5830 5843 5839 5837 5842 5838 5824 5816 5805 5798 5809 5814 5816 5819 5819 5817 5813 5809
5728 5735 5746 5745 5757 5757 5751 5755 5769 5783 5796 5799 5800 5819 5823 5806 5818 5816 5822 5825 5836 5839 5830 5828 5813 5820 5823 5835 5842 5822 5826 5829 5825 5816 5808 5800 5802 5821 5817 5814 5810 5810 5809 5804 5798
5732 5744 5743 5746 5753 5755 5758 5766 5783 5793 5808 5816 5819 5817 5815 5833 5845 5857 5846 5841 5843 5838 5827 5822 5815 5802 5799 5816 5823 5797 5805 5814 5815 5816 5810 5793 5805 5811 5804 5807 5806 5800 5798 5791 5786